Location: Stull Observatory
(42.2506°N, 77.7903°W)
Time: 06:34:28
(UTC-04:00)

Daily predictions for brighter satellites

Satellite Brightness Start Highest point End
(mag) Time Altitude Azimuth Time Altitude Azimuth Time Altitude Azimuth
Cosmos 1242 Rocket 4.1 21:21:53 10° NNE 21:24:54 23° ENE 21:27:54 10° SE
Cosmos 2297 Rocket 2.3 21:22:49 10° SSW 21:28:28 86° WNW 21:34:11 10° NNE
Meteor 2-15 4.4 21:22:35 10° S 21:28:37 82° E 21:34:43 10° N
Resurs 01 Rocket 3.7 21:25:57 10° SSW 21:29:40 27° W 21:33:26 10° NW
Cosmos 1939 Rocket 3.3 21:29:37 10° S 21:33:35 64° W 21:37:37 10° NNW
Cosmos 1867 4.1 21:31:14 10° S 21:36:12 38° ESE 21:41:12 10° NE
Cosmos 2100 Rocket 4.4 21:32:37 10° N 21:38:45 51° ENE 21:44:55 10° SSE
Cosmos 1459 Rocket 4.4 21:32:44 10° N 21:38:49 47° ENE 21:44:46 10° SSE
Cosmos 1340 Rocket 2.9 21:40:34 10° S 21:44:35 88° W 21:48:40 10° N
ATLAS 5 CENTAUR R/B 1.7 21:44:22 10° SSW 21:48:57 67° ESE 21:53:57 10° NE
Cosmos 2173 Rocket 4.2 21:45:58 10° N 21:52:02 58° E 21:58:06 10° SSE
Cosmos 1850 Rocket 3.9 21:48:14 10° SSW 21:53:24 76° ESE 21:58:36 10° NNE
SPOT 5 3.4 21:49:06 11° SE 21:53:24 46° ENE 21:58:13 10° N
Lacrosse 5 3.0 21:49:15 10° NW 21:53:55 35° NNE 21:58:34 10° E
Cosmos 2084 3.3 21:51:21 10° SSW 21:55:17 55° ESE 21:59:04 10° NE
YAOGAN 6 3.4 21:52:11 10° S 21:55:42 49° W 21:59:18 10° NNW
Cosmos 614 Rocket 4.3 21:50:45 10° SSW 21:55:58 73° WNW 22:01:11 10° NNE
Cosmos 2237 Rocket 3.5 21:51:29 10° NW 21:56:32 35° WSW 22:01:35 10° S
Cosmos 1726 3.5 21:53:38 10° NNE 21:56:39 23° ENE 21:58:49 14° ESE
Helios 1B rocket 3.6 21:52:45 10° N 21:56:44 46° WNW 22:00:41 10° SW
Helios 1A 4.4 21:54:30 10° SSW 21:58:18 34° W 22:02:06 10° NNW
CZ-4B DEB 4.2 21:56:01 10° SSW 21:58:42 31° W 22:01:25 10° NNW
USA 234 3.3 21:52:27 10° NE 21:58:52 56° SE 22:05:15 10° SSW
Cosmos 1603 4.4 21:57:42 10° NNW 22:03:03 41° ENE 22:07:25 15° SE
CZ-3B R/B 4.0 22:00:07 10° SSW 22:03:05 59° SE 22:12:47 10° NE
H-2A R/B 2.7 22:00:47 14° SE 22:05:02 44° ENE 22:10:09 10° N
Atlas Centaur 2 3.2 22:04:54 10° SSW 22:06:04 11° S 22:06:40 11° S
ERS-1 Rocket 3.2 22:02:05 10° S 22:07:06 73° WSW 22:12:10 10° NNW
Cosmos 1802 Rocket 4.0 22:04:34 10° N 22:10:43 70° E 22:16:08 14° SSE
Abrixas rocket 3.9 22:08:24 10° NW 22:11:20 30° N 22:14:16 10° ENE
Cosmos 1818 3.7 22:06:30 10° NW 22:11:57 77° WSW 22:16:16 16° SSE
Cosmos 2227 Rocket 4.1 22:07:06 10° WSW 22:12:08 32° NW 22:17:12 10° N
Lacrosse 4 Rocket 4.4 22:12:00 10° W 22:15:16 21° NW 22:18:36 10° N
Cosmos 1908 3.4 22:12:51 10° NNW 22:16:45 71° W 22:20:03 14° S
Cosmos 1674 2.8 22:13:28 10° SSW 22:17:14 74° W 22:21:00 10° N
Cosmos 1741 Rocket 4.4 22:12:24 10° SSW 22:17:42 70° WNW 22:23:01 10° NNE
SL-16 R/B 2.8 22:14:39 10° NNW 22:20:10 54° WSW 22:25:10 13° S
Cosmos 1943 4.4 22:15:18 10° N 22:20:13 30° NE 22:24:10 14° ESE
Landsat 7 4.4 22:20:56 19° SE 22:23:55 43° ENE 22:28:26 10° N
ARGOS 3.2 22:20:18 14° SSE 22:24:59 83° WSW 22:30:26 10° NNW
Cosmos 1408 Rocket 3.4 22:23:35 12° S 22:27:28 82° E 22:31:49 10° N
KORONAS-FOTON 3.8 22:24:13 12° S 22:27:43 84° W 22:31:33 10° N
Cosmos 1356 Rocket 4.1 22:28:37 10° SSW 22:32:46 58° WNW 22:37:02 10° N
Cosmos 1076 Rocket 4.3 22:28:52 10° SSW 22:33:08 53° W 22:37:25 10° N
Tiangong 1 0.7 22:32:28 10° W 22:35:16 81° N 22:36:46 24° E
DMSP B5D2-2 4.3 22:31:47 10° NNE 22:36:53 50° E 22:40:08 21° SSE
Terra 2.4 22:36:22 23° SE 22:38:52 43° ENE 22:43:22 10° N
Cosmos 2058 4.1 22:38:51 24° ESE 22:39:56 27° E 22:43:29 10° NNE
Cosmos 2016 Rocket 4.1 22:36:24 10° N 22:42:41 80° W 22:47:32 17° S
Cosmos 2221 4.4 22:40:28 10° NNW 22:44:11 27° W 22:47:52 10° SSW
Cosmos 1500 Rocket 4.0 22:45:14 29° SSE 22:47:06 46° E 22:51:23 10° NNE
Cosmos 332 Rocket 3.8 22:47:08 10° NNW 22:52:03 87° ENE 22:54:33 30° SSE
ERBS 3.4 22:50:09 10° NNW 22:53:21 38° NE 22:54:40 26° E
Cosmos 2227 4.4 22:49:03 10° SSW 22:54:47 77° WNW 23:00:31 10° NNE
Cosmos 2151 3.4 22:54:01 33° SE 22:55:24 46° E 22:59:33 10° NNE
Cosmos 1814 Rocket 4.0 22:50:05 10° NNW 22:55:28 80° ENE 22:58:11 30° SSE
CARTOSAT-1 3.6 22:55:32 34° SE 22:57:18 65° ENE 23:01:35 10° N
RESURS DK-1 2.4 22:53:33 10° NNW 22:57:44 78° WSW 22:59:21 36° SSE
SPOT 1/Viking Rocket 3.9 22:56:35 21° S 22:59:55 58° W 23:05:00 10° NNW
Cosmos 1486 Rocket 4.0 22:57:04 25° S 23:00:03 61° ESE 23:05:17 10° NNE
Meteor 2-2 Rocket 4.5 22:57:44 10° NNW 23:03:29 70° W 23:07:11 23° S
EO 1 Delta rocket 4.4 23:04:01 21° SSW 23:06:59 52° W 23:11:30 10° NNW
Cosmos 2233 Rocket 4.0 23:01:57 10° N 23:08:11 72° E 23:11:20 30° SSE
Cosmos 841 Rocket 3.6 23:03:47 10° NNW 23:09:02 65° ENE 23:11:13 34° SE
Cosmos 1328 Rocket 3.9 23:06:35 10° NNW 23:10:52 57° W 23:12:49 29° SSW
Cosmos 2228 Rocket 3.4 23:07:47 10° NNW 23:12:20 63° W 23:14:28 30° SSW
Cosmos 1763 Rocket 3.4 23:07:22 10° NNW 23:12:32 88° ENE 23:14:35 37° SSE
SL-14 R/B 3.9 23:10:43 23° SSW 23:12:58 54° W 23:16:51 10° N
Cosmos 1515 Rocket 3.6 23:10:05 10° NNW 23:14:26 75° W 23:16:02 38° S
H-2A R/B 2.0 23:17:20 44° SSE 23:18:41 85° E 23:22:59 10° NNW
Cosmos 1743 Rocket 4.1 23:16:55 23° SSW 23:19:23 55° W 23:23:39 10° N
Cosmos 1151 Rocket 3.0 23:19:05 10° N 23:23:30 78° W 23:24:51 43° S
Cosmos 1300 4.0 23:20:03 10° NNW 23:23:33 35° W 23:25:01 25° SW
Cosmos 2263 Rocket 2.1 23:21:44 32° S 23:24:20 67° ESE 23:29:54 10° NNE
Cosmos 1626 2.0 23:25:43 65° SSE 23:26:08 77° E 23:29:53 10° N
SL-19 R/B 4.1 23:22:36 10° NNE 23:27:56 88° ESE 23:30:50 30° SSW
Cosmos 1726 4.2 23:29:04 10° NW 23:31:50 20° W 23:33:27 15° WSW
ATLAS 5 CENTAUR R/B 4.5 23:30:26 10° W 23:34:09 22° NW 23:38:09 10° NNE
IGS 5A 4.0 23:33:58 37° SW 23:35:08 49° W 23:39:11 10° NNW
Lacrosse 5 2.3 23:32:09 10° NW 23:37:02 49° SW 23:38:08 41° SSW
Meteor 2-12 Rocket 4.4 23:31:52 10° N 23:37:58 80° W 23:40:35 36° S
USA 234 4.2 23:35:33 10° NE 23:41:49 50° NNW 23:48:03 10° WSW
Cosmos 371 Rocket 4.3 23:38:24 10° NW 23:42:49 37° WSW 23:44:22 29° SW
H-2A R/B 3.8 23:41:24 15° SW 23:44:36 25° W 23:49:00 10° NW
Cosmos 1503 Rocket 3.9 23:43:59 44° S 23:45:39 80° ESE 23:50:51 10° NNE
Cosmos 2285 Rocket 4.0 23:41:50 10° NNW 23:48:13 82° ENE 23:50:38 41° SSE
Abrixas rocket 2.9 23:45:04 10° WNW 23:47:34 49° WNW 23:47:34 49° WNW
PSLV R/B 4.4 23:49:41 35° WNW 23:49:41 35° WNW 23:51:49 10° NNW
Cosmos 1869 3.8 23:46:25 10° N 23:50:14 45° ENE 23:50:18 45° E
CZ-4C R/B 3.4 23:53:11 68° S 23:53:44 88° WSW 23:58:07 10° NNW
